Regional Weather Roundup
Issued by NWS

Home | Current Version | Previous Version | Text Only | Print | Product List | Glossary On
Versions: 1 2 3 4 5 6 7 8 9 10 11 12 13 14 15 16 17 18 19 20 21 22 23 24 25 26 27 28 29 30 31 32 33 34 35 36 37 38 39 40 41 42 43 44 45 46 47 48 49 50
000
ASUS43 KLMK 260210
RWRKY
KENTUCKY REGIONAL WEATHER ROUNDUP
NATIONAL WEATHER SERVICE LOUISVILLE KY
1000 PM EDT SAT OCT 25 2014

NOTE "FAIR" INDICATES FEW OR NO CLOUDS BELOW 12,000 FEET
WITH NO SIGNIFICANT WEATHER AND/OR OBSTRUCTIONS TO VISIBILITY.

KYZ001>023-026-027-061>063-070>075-260300-
WESTERN AND SOUTH CENTRAL KENTUCKY

CITY           SKY/WX    TMP DP  RH WIND       PRES   REMARKS
PADUCAH        CLEAR     57  56  96 SW5       30.00F
HENDERSON      CLEAR    N/A N/A N/A CALM      30.00S
OWENSBORO      CLEAR     59  55  86 CALM      30.00S
HOPKINSVILLE   CLEAR     63  63 100 SW3       30.02S
BOWLING GREEN  CLEAR     60  57  89 CALM      30.01S
GLASGOW          N/A     58  58 100 CALM      30.01S FOG
$$

KYZ024-025-028>034-038-045-046-053-260300-
NORTH CENTRAL KENTUCKY

CITY           SKY/WX    TMP DP  RH WIND       PRES   REMARKS
LOUISVILLE/SDF CLEAR     65  56  72 S6        29.96S
LOUISVILLE/LOU CLEAR     64  56  75 SW6       29.97S
FORT KNOX      CLEAR     59  55  85 SW7       29.98S
$$

KYZ035>037-039>044-047>052-055>060-089>105-260300-
NORTHEAST KENTUCKY

CITY           SKY/WX    TMP DP  RH WIND       PRES   REMARKS
LEXINGTON      CLEAR     62  56  80 SW8       29.97S
COVINGTON      PTCLDY    66  50  56 W9        29.92S
FRANKFORT      CLEAR     63  56  78 W6        29.95S
$$

KYZ054-064>069-076>088-106>120-260300-
SOUTHEAST KENTUCKY

CITY           SKY/WX    TMP DP  RH WIND       PRES   REMARKS
JACKSON        CLEAR     60  53  77 VRB3      29.98S
LONDON         CLEAR     56  52  86 CALM      30.01S
SOMERSET       CLEAR     55  55 100 CALM      30.03R
MIDDLESBORO    CLEAR     51  50  97 CALM      30.03S FOG
MONTICELLO     CLEAR     49  47  93 CALM      30.04R FOG
$$




USA.gov is the U.S. government's official web portal to all federal, state and local government web resources and services.